[[{"header":{"parameterUnit":"m.s-1","parameterCategory":1,"la1":30.2991,"la2":30.254,"lo1":-89.0895,"lo2":-89.0444,"dy":0.0017,"dx":0.0017,"nx":28,"ny":28,"refTime":"2023-10-09T21:00:00:Z","depth":0,"parameterNumber":2,"parameterNumberName":"U-component_of_WINDS"},"data":[0,0,0,0,0,0,0,0,0,0,0,0,0,0,0,0,0,0,0,0,0,0,0,0,0,0,0,0,0,0,0,0,0,0,0,0,0,0,0,0,0,0,0,0,0,0,0,0,0,0,0,0,0,0,0,0,0,0,-0.4531,-0.4532,0,-0.4597,-0.4598,-0.4598,-0.4589,-0.4588,-0.4587,-0.4586,-0.4658,-0.4661,-0.4664,0,0,0,0,0,0,0,0,0,0,0,0,0,-0.4402,-0.4405,-0.4531,-0.4532,-0.4533,-0.4597,-0.4598,-0.4599,-0.4589,-0.4588,-0.4587,-0.4585,-0.4657,-0.4661,-0.4664,0,0,0,0,0,0,0,0,0,0,0,0,0,-0.4462,-0.4406,-0.4531,-0.4536,-0.4537,-0.4597,-0.4598,-0.4599,-0.459,-0.4588,-0.4586,-0.4585,-0.4656,-0.466,-0.4665,-0.4725,0,0,-0.4678,-0.468,0,0,0,0,0,0,0,0,-0.4459,-0.4467,-0.4534,-0.4536,-0.4537,-0.4583,-0.4579,-0.4641,-0.459,-0.457,-0.4586,-0.4584,-0.4635,-0.4641,-0.4657,-0.4729,-0.4732,-0.4679,-0.4681,-0.4683,-0.4685,0,0,0,0,0,0,0,-0.4455,-0.4464,-0.4557,-0.4535,-0.4537,-0.4536,-0.4543,-0.4591,-0.4611,-0.4572,-0.4571,-0.4579,-0.4635,-0.4653,-0.4659,-0.4733,-0.4679,-0.4683,-0.4685,-0.4687,-0.4859,-0.486,0,0,0,0,0,0,-0.4449,-0.4461,-0.4555,-0.4559,-0.4493,-0.454,-0.4547,-0.457,-0.461,-0.4615,-0.458,-0.4578,-0.4646,-0.4654,-0.4661,-0.4736,-0.4683,-0.4687,-0.469,-0.4857,-0.4859,-0.4861,0,0,0,0,0,0,-0.4446,-0.4457,-0.4553,-0.451,-0.4522,-0.4544,-0.4569,-0.4572,-0.459,-0.4617,-0.4621,-0.4594,-0.4645,-0.4655,-0.4709,-0.4738,-0.4689,-0.4693,-0.4854,-0.4857,-0.486,-0.4885,0,0,0,0,0,0,-0.4442,-0.4456,-0.4479,-0.451,-0.4524,-0.4598,-0.4571,-0.4575,-0.4597,-0.4595,-0.4631,-0.4635,-0.4645,-0.4703,-0.4714,-0.4743,-0.4697,-0.4852,-0.4856,-0.4859,-0.4882,-0.4888,-0.4894,0,0,0,0,0,-0.4438,-0.4484,-0.448,-0.4491,-0.4552,-0.46,-0.4608,-0.4616,-0.4599,-0.4623,-0.464,-0.4634,-0.4733,-0.4708,-0.4721,-0.4752,-0.485,-0.4855,-0.4859,-0.4879,-0.4887,-0.4894,0,0,0,0,0,0,-0.4457,-0.4488,-0.4484,-0.4541,-0.4568,-0.4598,-0.4628,-0.4625,-0.4658,-0.4655,-0.4665,-0.4673,-0.4728,-0.4745,-0.4718,-0.4813,-0.4789,-0.4796,-0.48,-0.4808,-0.4814,-0.481,-0.4701,0,0,0,0,0,-0.4467,-0.4502,-0.4528,-0.4576,-0.459,-0.4606,-0.4628,-0.4631,-0.466,-0.4672,-0.4693,-0.4722,-0.476,-0.4785,-0.4821,-0.4883,-0.4892,-0.4911,-0.4917,-0.4922,-0.4928,-0.4964,-0.4973,-0.4875,-0.4875,-0.4875,0,0,-0.4491,-0.4512,-0.4533,-0.4581,-0.4602,-0.4639,-0.4616,-0.4656,-0.4685,-0.4678,-0.4731,-0.4747,-0.4781,-0.484,-0.4867,-0.4856,-0.4957,-0.4927,-0.4931,-0.4935,-0.4969,-0.4978,-0.4987,-0.4878,-0.4877,-0.4877,0,0,-0.4552,-0.457,-0.4613,-0.4634,-0.4665,-0.4676,-0.4686,-0.4717,-0.4727,-0.4779,-0.4776,-0.481,-0.4874,-0.4898,-0.4919,-0.4988,-0.4985,-0.4999,-0.5032,-0.5067,-0.5075,-0.5081,-0.5108,-0.5117,-0.5005,-0.5006,-0.5006,0,-0.4577,-0.4631,-0.4636,-0.4676,-0.4698,-0.4692,-0.4736,-0.4756,-0.4799,-0.4815,-0.4801,-0.4881,-0.4903,-0.4968,-0.4985,-0.5001,-0.5015,-0.4997,-0.5073,-0.508,-0.5086,-0.5111,-0.5121,-0.5007,-0.5007,-0.5007,-0.5007,0,-0.4661,-0.4699,-0.473,-0.4769,-0.4794,-0.4836,-0.4849,-0.4873,-0.4874,-0.4887,-0.4941,-0.4967,-0.5008,-0.5023,-0.5026,-0.5089,-0.5081,-0.507,-0.5047,-0.5097,-0.5121,-0.5131,-0.501,-0.5009,-0.5009,-0.5008,0,0,-0.4739,-0.4778,-0.479,-0.4807,-0.4841,-0.4871,-0.4913,-0.4952,-0.4974,-0.5003,-0.504,-0.5093,-0.5083,-0.5106,-0.5111,-0.5141,-0.5196,-0.5126,-0.5127,-0.514,-0.5269,-0.5279,-0.5289,-0.5193,-0.5194,-0.5196,-0.5267,0,-0.4804,-0.4877,-0.4882,-0.4949,-0.4985,-0.4978,-0.5015,-0.5041,-0.5053,-0.5087,-0.5101,-0.514,-0.5122,-0.5136,-0.5165,-0.5183,-0.5222,-0.5178,-0.5229,-0.5231,-0.5223,-0.5302,-0.5312,-0.5378,-0.5276,-0.5277,-0.5278,0,-0.4891,-0.4921,-0.4991,-0.5019,-0.5034,-0.5067,-0.5103,-0.5134,-0.5163,-0.517,-0.5196,-0.5196,-0.5241,-0.5214,-0.5277,-0.5247,-0.5268,-0.528,-0.5282,-0.5289,-0.5259,-0.5313,-0.5399,-0.5409,-0.5293,-0.5292,-0.5291,0,-0.4942,-0.5,-0.5049,-0.5064,-0.5098,-0.5122,-0.5137,-0.5164,-0.5187,-0.5219,-0.5234,-0.5271,-0.5292,-0.5321,-0.5333,-0.5312,-0.5396,-0.5369,-0.5405,-0.5405,-0.5425,-0.5424,-0.5517,-0.5435,-0.5435,-0.5434,-0.5434,0,-0.5017,-0.506,-0.5073,-0.5103,-0.5152,-0.5158,-0.5206,-0.5221,-0.5244,-0.5279,-0.5276,-0.5309,-0.532,-0.5355,-0.5364,-0.5416,-0.5425,-0.5433,-0.5436,-0.5435,-0.5434,-0.5451,-0.5447,-0.5437,-0.5436,-0.5436,-0.5436,0,-0.5083,-0.5093,-0.5147,-0.5174,-0.5181,-0.5216,-0.524,-0.527,-0.5281,-0.5325,-0.5336,-0.5354,-0.5395,-0.5408,-0.5458,-0.5464,-0.5525,-0.5522,-0.5515,-0.5516,-0.5551,-0.5549,-0.5661,-0.5676,-0.5582,-0.5582,-0.5583,0,-0.5131,-0.5164,-0.5194,-0.5216,-0.5232,-0.5267,-0.529,-0.5296,-0.5321,-0.5356,-0.5382,-0.5422,-0.5455,-0.5521,-0.554,-0.5578,-0.5578,-0.5614,-0.5584,-0.5582,-0.5581,-0.5579,-0.5584,-0.5621,-0.5622,-0.5623,-0.5623,0,-0.5215,-0.5218,-0.525,-0.5284,-0.5311,-0.5339,-0.5365,-0.5384,-0.5394,-0.5422,-0.5463,-0.5488,-0.5538,-0.5579,-0.5617,-0.5635,-0.5632,-0.5632,-0.5643,-0.5644,-0.5639,-0.5644,-0.5533,-0.563,-0.563,-0.5629,-0.5629,-0.5629,-0.5276,-0.5305,-0.533,-0.5366,-0.5386,-0.5411,-0.5441,-0.5454,-0.5488,-0.5528,-0.553,-0.5575,-0.5603,-0.5655,-0.5674,-0.571,-0.57,-0.5715,-0.5719,-0.5724,-0.5727,-0.5631,-0.5717,-0.5717,-0.5717,-0.5717,-0.5717,0,-0.5361,-0.5377,-0.5409,-0.5446,-0.5474,-0.5466,-0.5494,-0.552,-0.5559,-0.5584,-0.5616,-0.5663,-0.5702,-0.5723,-0.5762,-0.5788,-0.5787,-0.5798,-0.5797,-0.5802,-0.5733,-0.5721,-0.5798,-0.5798,-0.5798,-0.5798,-0.5798,-0.5797,-0.541,-0.5459,-0.5465,-0.5524,-0.5539,-0.5582,-0.5599,-0.5623,-0.5643,-0.5695,-0.5727,-0.574,-0.5764,-0.5805,-0.5841,-0.5846,-0.5862,-0.5874,-0.5879,-0.5815,-0.5807,-0.5799,-0.5787,-0.5877,-0.5877,-0.5944,-0.5945,-0.5946]},{"header":{"parameterUnit":"m.s-1","parameterCategory":1,"la1":30.2991,"la2":30.254,"lo1":-89.0895,"lo2":-89.0444,"dy":0.0017,"dx":0.0017,"nx":28,"ny":28,"refTime":"2023-10-09T21:00:00:Z","depth":0,"parameterNumber":3,"parameterNumberName":"V-component_of_WINDS"},"data":[0,0,0,0,0,0,0,0,0,0,0,0,0,0,0,0,0,0,0,0,0,0,0,0,0,0,0,0,0,0,0,0,0,0,0,0,0,0,0,0,0,0,0,0,0,0,0,0,0,0,0,0,0,0,0,0,0,0,1.77,1.7701,0,1.7771,1.7772,1.7773,1.7767,1.7765,1.7764,1.7763,1.7834,1.7837,1.7839,0,0,0,0,0,0,0,0,0,0,0,0,0,1.7555,1.7557,1.77,1.7701,1.7702,1.7771,1.7772,1.7773,1.7767,1.7765,1.7764,1.7763,1.7833,1.7836,1.784,0,0,0,0,0,0,0,0,0,0,0,0,0,1.7621,1.7558,1.77,1.7707,1.7708,1.7771,1.7772,1.7773,1.7767,1.7765,1.7764,1.7762,1.7832,1.7836,1.784,1.7899,0,0,1.7853,1.7855,0,0,0,0,0,0,0,0,1.7617,1.7626,1.7705,1.7707,1.7708,1.7758,1.7747,1.7815,1.7767,1.7745,1.7763,1.7761,1.781,1.7816,1.7833,1.7903,1.7906,1.7854,1.7856,1.7858,1.7859,0,0,0,0,0,0,0,1.7613,1.7623,1.7728,1.7706,1.7708,1.7705,1.7713,1.776,1.7785,1.7747,1.7746,1.7755,1.781,1.7829,1.7834,1.7907,1.7854,1.7857,1.786,1.7862,1.8027,1.8029,0,0,0,0,0,0,1.7607,1.7619,1.7726,1.773,1.7658,1.7709,1.7718,1.7744,1.7785,1.779,1.7756,1.7754,1.7822,1.7829,1.7837,1.7908,1.7858,1.7862,1.7865,1.8026,1.8028,1.803,0,0,0,0,0,0,1.7604,1.7616,1.7723,1.7675,1.7688,1.7714,1.7743,1.7746,1.7764,1.7792,1.7796,1.777,1.7821,1.7831,1.7884,1.7911,1.7864,1.7868,1.8024,1.8026,1.8029,1.8052,0,0,0,0,0,0,1.76,1.7615,1.7639,1.7675,1.7691,1.777,1.7745,1.7749,1.7772,1.777,1.7807,1.7811,1.782,1.7877,1.7888,1.7916,1.7871,1.8021,1.8025,1.8028,1.8049,1.8055,1.806,0,0,0,0,0,1.7595,1.7642,1.764,1.7653,1.7721,1.7771,1.778,1.7791,1.7774,1.7798,1.7815,1.781,1.7906,1.7883,1.7895,1.7924,1.802,1.8024,1.8028,1.8046,1.8054,1.806,0,0,0,0,0,0,1.7608,1.7647,1.7645,1.7707,1.7736,1.777,1.78,1.7799,1.7832,1.7829,1.784,1.7848,1.7901,1.7918,1.7892,1.7983,1.796,1.7967,1.797,1.7978,1.7983,1.7978,1.7875,0,0,0,0,0,1.7618,1.7657,1.7689,1.7739,1.7754,1.7775,1.7797,1.7803,1.7833,1.7845,1.7867,1.7895,1.7932,1.7956,1.7991,1.8051,1.8058,1.8077,1.8083,1.8087,1.8093,1.8125,1.8133,1.8043,1.8043,1.8043,0,0,1.7639,1.7666,1.7689,1.7743,1.7766,1.7805,1.7785,1.7827,1.7855,1.7851,1.7903,1.7919,1.7952,1.8009,1.8035,1.8024,1.8119,1.8092,1.8096,1.8099,1.813,1.8138,1.8146,1.8046,1.8045,1.8045,0,0,1.7698,1.7722,1.7767,1.779,1.7826,1.7839,1.785,1.7884,1.7895,1.7948,1.7945,1.7978,1.8041,1.8064,1.8084,1.815,1.8146,1.8161,1.8191,1.8222,1.8229,1.8236,1.8259,1.8267,1.8167,1.8167,1.8167,0,1.7719,1.7779,1.779,1.7832,1.7855,1.7853,1.7898,1.792,1.7965,1.798,1.7968,1.8046,1.8068,1.813,1.8146,1.8162,1.8174,1.8157,1.8228,1.8234,1.824,1.8262,1.8271,1.8168,1.8168,1.8168,1.8168,0,1.7803,1.7844,1.7876,1.792,1.7946,1.7989,1.8006,1.8031,1.8034,1.8048,1.81,1.8127,1.8167,1.8182,1.8185,1.8243,1.8236,1.8226,1.8203,1.825,1.8271,1.828,1.8171,1.817,1.817,1.8169,0,0,1.7873,1.7922,1.7933,1.7953,1.7991,1.8023,1.8065,1.8105,1.8126,1.8157,1.8192,1.8245,1.8235,1.8258,1.8263,1.8291,1.834,1.8277,1.8278,1.8287,1.8406,1.8413,1.8423,1.8338,1.8339,1.8341,1.8403,0,1.7935,1.8011,1.8022,1.8089,1.8126,1.8124,1.8161,1.8188,1.8202,1.8234,1.8249,1.8286,1.8272,1.8285,1.8312,1.8329,1.8364,1.8324,1.837,1.8371,1.8362,1.8434,1.8442,1.8499,1.8411,1.8412,1.8413,0,1.8018,1.8051,1.8122,1.8155,1.8171,1.8204,1.824,1.8272,1.8302,1.831,1.8335,1.8337,1.8379,1.8355,1.8413,1.8386,1.8405,1.8416,1.8418,1.8423,1.8395,1.844,1.8518,1.8526,1.8426,1.8425,1.8424,0,1.8061,1.8123,1.8174,1.819,1.823,1.8253,1.827,1.8299,1.8322,1.8353,1.8368,1.8404,1.8424,1.8451,1.8462,1.8443,1.8519,1.8496,1.8526,1.8526,1.8542,1.8541,1.8624,1.8555,1.8555,1.8555,1.8555,0,1.8129,1.8172,1.8193,1.8224,1.8272,1.8283,1.833,1.8346,1.8371,1.8404,1.8405,1.8436,1.8448,1.8481,1.849,1.8536,1.8545,1.8552,1.8554,1.8552,1.8551,1.8564,1.8561,1.8557,1.8557,1.8556,1.8556,0,1.8185,1.8201,1.8256,1.8289,1.8298,1.8332,1.8359,1.8388,1.8402,1.8443,1.8454,1.8474,1.8513,1.8526,1.8573,1.8578,1.8632,1.8631,1.8622,1.8623,1.8652,1.8649,1.8746,1.8759,1.8682,1.8682,1.8683,0,1.8228,1.8261,1.8297,1.832,1.8338,1.8374,1.8398,1.8409,1.8433,1.8469,1.8494,1.8532,1.8563,1.8624,1.8643,1.8678,1.8677,1.8709,1.8682,1.8679,1.8677,1.8675,1.8678,1.8714,1.8714,1.8715,1.8716,0,1.8301,1.8307,1.8341,1.8378,1.8406,1.8436,1.8464,1.8482,1.8498,1.8524,1.8564,1.8588,1.8635,1.8673,1.8709,1.8725,1.8723,1.8724,1.8732,1.8731,1.8725,1.8728,1.8635,1.8721,1.8721,1.872,1.872,1.872,1.8351,1.838,1.841,1.8448,1.8471,1.8497,1.8526,1.8543,1.8576,1.8616,1.862,1.8663,1.869,1.8738,1.8756,1.8789,1.878,1.8793,1.8796,1.8799,1.8801,1.872,1.8795,1.8795,1.8795,1.8795,1.8795,0,1.8424,1.8443,1.8478,1.8518,1.8547,1.8543,1.8574,1.8598,1.8636,1.8662,1.8693,1.8737,1.8773,1.8795,1.883,1.8852,1.8852,1.8861,1.886,1.8863,1.8807,1.8796,1.8861,1.8861,1.8861,1.8861,1.8861,1.8861,1.8466,1.8515,1.8524,1.8583,1.8602,1.8644,1.8662,1.8685,1.8707,1.8757,1.8787,1.8801,1.8825,1.8862,1.8895,1.89,1.8913,1.8923,1.8927,1.8874,1.8867,1.8861,1.885,1.8926,1.8926,1.898,1.8981,1.8981]}]]